Burnsville, North Carolina, United States (28714)
Lat: 35.92N, Lon: 82.3W
Wx Zone: NCZ049
Local Info
Past Weather Observations for Sunday, July 20, 2014

NOTE: This archive is for the closest National Weather Service station to Burnsville. Information may differ from the station used for current weather conditions.

Click here for Long-term Archive

Time Weather Temperature Dewpoint Humidity Pressure Winds Precip Visibility
23:54
Overcast
70°F / 21°C 66°F / 19°C 88% 30.18 in
(1022 mb)
Calm - 10SM
23:50
Overcast
70°F / 21°C 66°F / 19°C 88% 30.18 in
(1022 mb)
Calm - 10SM
23:42
Overcast
68°F / 20°C 66°F / 19°C 94% 30.18 in
(1022 mb)
Calm - 10SM
22:54
Mostly Cloudy
68°F / 20°C 66°F / 19°C 94% 30.15 in
(1021 mb)
Calm - 10SM
21:54
Partly Cloudy
70°F / 21°C 66°F / 19°C 88% 30.15 in
(1021 mb)
SW 3.5 mph
(SW 6 kph)
- 10SM
21:42
Mostly Cloudy
72°F / 22°C 66°F / 19°C 83% 30.15 in
(1021 mb)
Calm - 10SM
20:54
Overcast
72°F / 22°C 66°F / 19°C 83% 30.15 in
(1021 mb)
Calm - 10SM
19:54
Overcast
72°F / 22°C 66°F / 19°C 83% 30.12 in
(1020 mb)
SE 5.8 mph
(SE 9 kph)
- 10SM
18:54
Overcast
73°F / 23°C 66°F / 19°C 78% 30.12 in
(1020 mb)
SE 6.9 mph
(SE 11 kph)
- 10SM
18:40
Mostly Cloudy
73°F / 23°C 66°F / 19°C 78% 30.12 in
(1020 mb)
SE 6.9 mph
(SE 11 kph)
- 10SM
17:54
Partly Cloudy
75°F / 24°C 66°F / 19°C 74% 30.12 in
(1020 mb)
SE 4.6 mph
(SE 7 kph)
- 10SM
16:54
Overcast
75°F / 24°C 68°F / 20°C 78% 30.09 in
(1019 mb)
ESE 4.6 mph
(ESE 7 kph)
0.01 in
(0.25 mm)
10SM
15:54
Overcast
73°F / 23°C 66°F / 19°C 78% 30.12 in
(1020 mb)
SSE 5.8 mph
(SSE 9 kph)
0.00 in
(0.00 mm)
10SM
14:54
Mostly Cloudy
77°F / 25°C 66°F / 19°C 69% 30.12 in
(1020 mb)
SSE 9.2 mph
(SSE 15 kph)
- 10SM
13:54
Mostly Cloudy
77°F / 25°C 66°F / 19°C 69% 30.12 in
(1020 mb)
SSE 6.9 mph
(SSE 11 kph)
- 10SM
13:49
Partly Cloudy
77°F / 25°C 64°F / 18°C 65% 30.12 in
(1020 mb)
Variable 4.6 mph
(Variable 7 kph)
- 10SM
13:39
Mostly Cloudy
77°F / 25°C 64°F / 18°C 65% 30.12 in
(1020 mb)
SSW 4.6 mph
(SSW 7 kph)
- 10SM
12:54
Partly Cloudy
75°F / 24°C 64°F / 18°C 69% 30.15 in
(1021 mb)
Variable 3.5 mph
(Variable 6 kph)
- 10SM
12:32
Mostly Cloudy
73°F / 23°C 64°F / 18°C 74% 30.15 in
(1021 mb)
Calm - 10SM
12:10
Mostly Cloudy
Fog And Mist
72°F / 22°C 63°F / 17°C 73% 30.18 in
(1022 mb)
S 6.9 mph
(S 11 kph)
- 10SM
11:54
Mostly Cloudy
Fog And Mist
72°F / 22°C 63°F / 17°C 73% 30.18 in
(1022 mb)
Variable 3.5 mph
(Variable 6 kph)
- 10SM
10:54
Overcast
Fog And Mist
68°F / 20°C 63°F / 17°C 83% 30.18 in
(1022 mb)
SSE 4.6 mph
(SSE 7 kph)
- 10SM
10:32
Overcast
Fog And Mist
68°F / 20°C 61°F / 16°C 78% 30.18 in
(1022 mb)
Variable 3.5 mph
(Variable 6 kph)
- 10SM
09:54
Mostly Cloudy
Fog And Mist
66°F / 19°C 61°F / 16°C 83% 30.18 in
(1022 mb)
S 4.6 mph
(S 7 kph)
- 10SM
08:54
Overcast
Fog And Mist
64°F / 18°C 59°F / 15°C 83% 30.18 in
(1022 mb)
S 3.5 mph
(S 6 kph)
- 10SM
07:54
Overcast
Fog And Mist
64°F / 18°C 61°F / 16°C 88% 30.18 in
(1022 mb)
Calm - 10SM
07:24
Overcast
Fog And Mist
63°F / 17°C 61°F / 16°C 94% 30.18 in
(1022 mb)
SW 4.6 mph
(SW 7 kph)
- 10SM
06:54
Overcast
Fog And Mist
63°F / 17°C 61°F / 16°C 94% 30.15 in
(1021 mb)
S 3.5 mph
(S 6 kph)
- 10SM
06:34
Overcast
Fog And Mist
63°F / 17°C 59°F / 15°C 88% 30.15 in
(1021 mb)
Calm - 10SM
05:54
Overcast
Fog And Mist
63°F / 17°C 59°F / 15°C 88% 30.15 in
(1021 mb)
Calm - 9SM
04:54
Overcast
Fog And Mist
63°F / 17°C 59°F / 15°C 88% 30.15 in
(1021 mb)
Calm - 10SM
04:05
Overcast
Fog And Mist
63°F / 17°C 59°F / 15°C 88% 30.15 in
(1021 mb)
Calm - 9SM
03:54
Overcast
Fog And Mist
63°F / 17°C 59°F / 15°C 88% 30.15 in
(1021 mb)
Calm 0.00 in
(0.00 mm)
9SM
03:27
Overcast
Fog And Mist
63°F / 17°C 59°F / 15°C 88% 30.15 in
(1021 mb)
Calm 0.00 in
(0.00 mm)
10SM
03:10
Overcast
Fog And Mist
63°F / 17°C 59°F / 15°C 88% 30.15 in
(1021 mb)
Calm 0.00 in
(0.00 mm)
9SM
02:54
Overcast
Light Rain
63°F / 17°C 61°F / 16°C 94% 30.15 in
(1021 mb)
Calm 0.00 in
(0.00 mm)
5SM
01:54
Overcast
Fog And Mist
63°F / 17°C 61°F / 16°C 94% 30.15 in
(1021 mb)
SSE 3.5 mph
(SSE 6 kph)
- 10SM
00:54
Overcast
Fog And Mist
63°F / 17°C 61°F / 16°C 94% 30.15 in
(1021 mb)
S 3.5 mph
(S 6 kph)
- 9SM
Time Weather Temperature Dewpoint Humidity Pressure Winds Precip Visibility


Weather for websites

WeatherForYou.com, LLC is not responsible for any damages or problems caused by this service. Current weather conditions are obtained from the closest station including government and personal stations which may have varying degrees of accuracy. Weather forecasts are derived from the NOAA NDFD. Like all things, this site belongs to Jesus Christ... He just trusts me to maintain it. If you have any questions or comments email webmaster@weatherforyou.com

Copyright © 2014, WeatherForYou.com LLC. All rights reserved.